Location: Bakov nad Jizerou
(50.4784°N, 14.9394°E)
Time: 08:35:29
(UTC+00:00)

Cosmos 1328 - Pass Details

Date: 16 June 2021
Orbit: 527 x 555 km, 82.5° (Epoch: 04 August)

Event Time Altitude Azimuth Distance (km) Brightness Sun altitude
Exits shadow 22:59:26 34° 177° (S) 889 4.3 -16.1°
Maximum altitude 23:01:02 75° 98° (E) 552 3.7 -16.1°
Drops below altitude 10° 23:04:57 10° 13° (NNE) 1,786 7.7 -16.1°
Sets 23:07:07 0° 12° (NNE) 2,683 9.0 -16.1°
